This demonstration page uses our WeatherBlox Daily Observations layout. Learn more.

Left ArrowRight Arrow

39.12711, -84.51439

Hourly Observations for January 4, 2022

Temp ( °F °C ) Dew Point ( °F °C ) Humidity (%) Winds ( mph kmh ) Pressure ( in mb ) Visibility ( mi km ) Precip ( " mm )
12:53 am 00:53 Clear 24 -4.4 22 -5.6 91 91 Calm 30.42 1030 10 16 0.00 0.00
1:53 am 01:53 Clear 23 -5 22 -5.6 96 96 SSW 3 6 30.41 1030 10 16 0.00 0.00
2:53 am 02:53 Clear 22 -5.6 21 -6.1 96 96 Calm 30.41 1030 10 16 0.00 0.00
3:53 am 03:53 Clear 22 -5.6 21 -6.1 96 96 Calm 30.40 1030 10 16 0.00 0.00
4:53 am 04:53 Clear 22 -5.6 21 -6.1 96 96 Calm 30.39 1029 10 16 0.00 0.00
5:53 am 05:53 Clear 22 -5.6 20 -6.7 92 92 Calm 30.39 1029 10 16 0.00 0.00
6:53 am 06:53 Clear 23 -5 21 -6.1 92 92 Calm 30.38 1029 10 16 0.00 0.00
7:53 am 07:53 Clear 21 -6.1 20 -6.7 96 96 SSW 6 9 30.37 1028 10 16 0.00 0.00
8:53 am 08:53 Sunny 25 -3.9 21 -6.1 85 85 Calm 30.35 1028 10 16 0.00 0.00
9:53 am 09:53 Sunny 28 -2.2 24 -4.4 85 85 SSW 6 9 30.35 1028 10 16 0.00 0.00
10:53 am 10:53 Sunny 32 0 26 -3.3 79 79 SSE 6 9 30.32 1027 10 16 0.00 0.00
11:53 am 11:53 Sunny 37 2.8 26 -3.3 65 65 SSW 9 15 30.27 1025 10 16 0.00 0.00
12:53 pm 12:53 Sunny 39 3.9 24 -4.4 55 55 S 9 15 30.22 1023 10 16 0.00 0.00
1:53 pm 13:53 Sunny 41 5 22 -5.6 47 47 S 10 17 30.16 1021 10 16 0.00 0.00
2:53 pm 14:53 Sunny 43 6.1 23 -5 45 45 SSE 14 22 30.10 1019 10 16 0.00 0.00
3:53 pm 15:53 Sunny 44 6.7 24 -4.4 45 45 S 14 22 30.07 1018 10 16 0.00 0.00
4:53 pm 16:53 Sunny 43 6.1 25 -3.9 49 49 S 10 17 30.05 1018 10 16 0.00 0.00
5:53 pm 17:53 Clear 38 3.3 25 -3.9 60 60 S 6 9 30.04 1017 10 16 0.00 0.00
6:53 pm 18:53 Clear 40 4.4 28 -2.2 63 63 S 9 15 29.99 1016 10 16 0.00 0.00
7:53 pm 19:53 Clear 40 4.4 31 -0.6 70 70 S 9 15 29.97 1015 10 16 0.00 0.00
8:53 pm 20:53 Clear 40 4.4 32 0 73 73 S 9 15 29.93 1014 10 16 0.00 0.00
9:53 pm 21:53 Clear 42 5.6 30 -1.1 62 62 S 15 24 29.89 1012 10 16 0.00 0.00
10:53 pm 22:53 Clear 41 5 30 -1.1 65 65 S 15 24 29.89 1012 10 16 0.00 0.00
11:53 pm 23:53 Clear 43 6.1 31 -0.6 63 63 SSW 17 28 29.86 1011 10 16 0.00 0.00

Powered by AerisWeather